Location: *
(3.2333°S, 66.9000°W)
Time: 05:50:14
(UTC+00:00)

Daily predictions for brighter satellites

Satellite Brightness Start Highest point End
(mag) Time Altitude Azimuth Time Altitude Azimuth Time Altitude Azimuth
ATLAS 2AS CENTAUR R/B 4.4 00:00:19 10° NW 00:06:19 33° WSW 00:12:30 10° S
Meteor 1-27 Rocket 4.3 00:05:05 10° NNW 00:10:55 61° W 00:16:42 10° S
Cosmos 1271 Rocket 3.9 00:09:10 10° NNW 00:12:23 36° W 00:15:37 10° SSW
BLOCK DM-SL R/B 4.0 00:05:21 10° W 00:23:21 70° N 00:24:55 52° ENE
ARIANE 44L R/B 4.3 00:20:01 10° WNW 00:26:29 24° NNW 00:26:50 23° NNW
deb Olympus 4.4 00:24:14 10° W 00:26:11 29° W 00:26:11 29° W
Cosmos 1655 Rocket 4.1 00:21:27 10° S 00:27:44 76° W 00:34:04 10° N
Yuri Rocket 4.5 00:24:04 10° SW 00:31:06 72° SSE 00:32:39 60° E
SL-08 R/B 4.3 00:35:25 42° SSW 00:35:25 42° SSW 00:38:40 10° SSW
Cosmos 2082 Rocket 3.9 00:46:30 10° NW 00:51:23 30° WSW 00:56:16 10° SSW
CZ-4C R/B 3.9 01:26:35 10° NW 01:34:09 51° W 01:34:09 51° W
CZ-3 Stage 3 3.8 07:45:56 76° ESE 07:45:56 76° ESE 08:10:28 10° ENE
Cosmos 2278 Rocket 4.3 08:00:42 20° NE 08:02:13 23° ENE 08:06:32 10° SE
CZ-3 R/B 3.4 07:32:37 10° WSW 08:09:45 86° NNW 08:18:36 10° ENE
Ariane H10 4.4 08:21:22 81° NNE 08:21:22 81° NNE 08:43:35 10° E
SL-16 R/B 3.1 08:32:31 10° SSE 08:38:32 56° ENE 08:44:31 10° N
Cosmos 614 Rocket 4.3 08:47:16 52° S 08:47:16 52° S 08:51:08 10° S
Cosmos 1603 4.1 08:49:01 10° S 08:54:33 62° ESE 09:00:03 10° NNE
Cosmos 1943 Rocket 2.0 08:54:21 66° WNW 08:54:57 73° WSW 09:00:34 10° S
Cosmos 44 3.0 08:57:57 70° S 08:58:26 82° ESE 09:03:02 10° NNE
Tsikada Rocket 3.9 08:53:58 15° NNW 08:59:09 62° W 09:05:24 10° S
Meteor 2-3 Rocket 3.8 09:06:56 47° W 09:07:21 48° W 09:12:45 10° S
CZ-3A R/B 3.1 09:09:20 20° NNE 09:09:20 20° NNE 09:10:51 10° ENE
BLOCK DM-SL R/B 4.4 09:03:35 29° W 09:12:58 83° S 09:18:07 10° E
ARIANE 5 R/B 2.1 09:14:07 34° NNW 09:14:22 35° N 09:17:40 10° ENE
Cosmos 2034 Rocket 3.9 09:10:09 10° S 09:16:20 86° W 09:22:29 10° N
Cosmos 1743 2.9 09:15:47 10° N 09:18:47 53° E 09:21:49 10° SSE
Cosmos 1464 Rocket 4.3 09:16:06 10° SSW 09:22:04 43° W 09:28:02 10° NNW
Cosmos 972 4.4 09:18:23 10° S 09:23:55 88° WNW 09:28:55 10° N
Delta 202 4.4 09:18:50 21° WSW 09:24:25 65° SSE 09:30:20 10° E
Cosmos 1933 3.1 09:21:28 10° SSW 09:25:15 59° W 09:29:00 10° N
EO 1 Delta rocket 4.3 09:21:50 10° N 09:26:53 59° W 09:33:14 10° SSW
Ariane H10 2.6 09:27:38 25° NNW 09:28:27 30° N 09:31:20 10° ENE
BREEZE-M R/B 2.0 09:31:29 47° W 09:32:00 58° SW 09:35:34 10° SSE
H-2A R/B 3.8 09:28:34 10° NNW 09:32:00 34° WNW 09:35:29 10° SW
ARIANE 5 R/B 1.9 09:31:13 35° WNW 09:32:10 62° N 09:39:20 10° E
NOAA 12 4.3 09:30:01 10° N 09:35:04 46° WNW 09:40:06 10° SSW
Ariane H10+ 3.7 09:31:08 18° NW 09:35:29 44° NNE 09:45:29 10° E
Cosmos 1892 Rocket 4.3 09:33:38 15° NW 09:36:37 30° W 09:40:30 10° SSW
CZ-4 R/B 3.6 09:33:16 10° N 09:37:54 75° WNW 09:42:31 10° SSW
Timation 2 Rocket 4.4 09:32:45 10° NW 09:38:44 42° WSW 09:45:01 10° S
Meteosat 1 Rocket2 4.4 09:34:28 15° NW 09:39:25 72° NNE 09:48:33 10° ESE
NOSS 3-2 (C) 4.4 09:32:40 10° NNW 09:41:52 81° WSW 09:51:12 10° SSE
Cosmos 1606 Rocket 3.4 09:38:35 10° S 09:42:52 77° W 09:47:09 10° N
Cosmos 2278 Rocket 3.2 09:42:41 15° WNW 09:45:59 25° WSW 09:50:31 10° SSW
Delta 168 2.7 09:43:42 18° WNW 09:46:54 74° SSW 09:50:22 10° ESE
Cosmos 2056 Rocket 3.4 09:42:25 10° SSW 09:47:25 59° WNW 09:52:26 10° N
ARIANE 5 DEB (SYLDA) 1.5 09:48:25 28° NW 09:49:17 47° N 09:51:29 10° E
ARIANE 5 R/B 0.7 09:49:38 24° W 09:50:34 89° WSW 09:52:45 10° E
ARIANE 5 R/B 2.1 09:46:55 16° W 09:50:54 64° N 09:53:02 10° E
UNK 3.9 09:51:22 10° S 09:55:43 48° WSW 10:00:05 10° NNW
Cosmos 1626 Rocket 3.4 09:51:58 10° N 09:56:15 76° W 10:00:32 10° S
Meteor 1-28 Rocket 4.2 09:55:48 10° SSW 09:58:14 19° WSW 10:00:39 10° NW
Cosmos 1656 Rocket 3.7 09:53:31 10° NNW 09:58:57 83° ENE 10:04:27 10° SSE
ATLAS 5 CENTAUR R/B 3.1 09:57:13 10° S 09:59:11 27° ESE 10:01:32 10° NE
IRS-1D 4.3 09:55:14 10° NNW 09:59:23 28° WNW 10:03:36 10° SW
Cosmos 2369 Rocket 4.3 09:56:14 10° NNE 10:01:02 30° ENE 10:05:51 10° SE
CRYOSAT 2 4.3 09:57:46 10° S 10:02:38 70° W 10:07:28 10° NNW
Cosmos 2058 Rocket 4.3 09:59:25 10° SSE 10:03:37 47° E 10:07:50 10° NNE
GPS 2-12 Rocket1 3.2 10:07:43 10° WNW 10:12:14 71° NNE 10:16:48 10° ESE
ARIANE 5 R/B 3.1 10:17:29 10° W 10:27:10 38° NNW 10:29:51 10° NE
